Year,Month,Day,Hour,Minute,Value (Times are PST for temperature in C)
2014,08,14,00,00,16.70
2014,08,14,00,01,16.70
2014,08,14,00,02,16.70
2014,08,14,00,03,16.70
2014,08,14,00,04,16.70
2014,08,14,00,05,16.70
2014,08,14,00,06,16.70
2014,08,14,00,07,16.70
2014,08,14,00,08,16.70
2014,08,14,00,09,16.70
2014,08,14,00,10,16.70
2014,08,14,00,11,16.70
2014,08,14,00,12,16.70
2014,08,14,00,13,16.70
2014,08,14,00,14,16.70
2014,08,14,00,15,16.70
2014,08,14,00,16,16.70
2014,08,14,00,17,16.70
2014,08,14,00,18,16.70
2014,08,14,00,19,16.70
2014,08,14,00,20,16.70
2014,08,14,00,21,16.70
2014,08,14,00,22,16.70
2014,08,14,00,23,16.70
2014,08,14,00,24,16.70
2014,08,14,00,25,16.70
2014,08,14,00,26,16.70
2014,08,14,00,27,16.70
2014,08,14,00,28,16.70
2014,08,14,00,29,16.70
2014,08,14,00,30,16.70
2014,08,14,00,31,16.70
2014,08,14,00,32,16.70
2014,08,14,00,33,16.70
2014,08,14,00,34,16.70
2014,08,14,00,35,16.70
2014,08,14,00,36,16.70
2014,08,14,00,37,16.70
2014,08,14,00,38,16.70
2014,08,14,00,39,16.70
2014,08,14,00,40,16.70
2014,08,14,00,41,16.70
2014,08,14,00,42,16.70
2014,08,14,00,43,16.70
2014,08,14,00,44,16.70
2014,08,14,00,45,16.70
2014,08,14,00,46,16.80
2014,08,14,00,47,16.70
2014,08,14,00,48,16.80
2014,08,14,00,49,16.80
2014,08,14,00,50,16.80
2014,08,14,00,51,16.80
2014,08,14,00,52,16.80
2014,08,14,00,53,16.80
2014,08,14,00,54,16.80
2014,08,14,00,55,16.70
2014,08,14,00,56,16.80
2014,08,14,00,57,16.80
2014,08,14,00,58,16.80
2014,08,14,00,59,16.80
2014,08,14,01,00,16.80
2014,08,14,01,01,16.80
2014,08,14,01,02,16.80
2014,08,14,01,03,16.80
2014,08,14,01,04,16.80
2014,08,14,01,05,16.80
2014,08,14,01,06,16.80
2014,08,14,01,07,16.80
2014,08,14,01,08,16.80
2014,08,14,01,09,16.80
2014,08,14,01,10,16.80
2014,08,14,01,11,16.80
2014,08,14,01,12,16.80
2014,08,14,01,13,16.80
2014,08,14,01,14,16.80
2014,08,14,01,15,16.80
2014,08,14,01,16,16.80
2014,08,14,01,17,16.80
2014,08,14,01,18,16.80
2014,08,14,01,19,16.80
2014,08,14,01,20,16.80
2014,08,14,01,21,16.80
2014,08,14,01,22,16.80
2014,08,14,01,23,16.80
2014,08,14,01,24,16.80
2014,08,14,01,25,16.80
2014,08,14,01,26,16.80
2014,08,14,01,27,16.80
2014,08,14,01,28,16.80
2014,08,14,01,29,16.80
2014,08,14,01,30,16.80
2014,08,14,01,31,16.90
2014,08,14,01,32,16.90
2014,08,14,01,33,16.90
2014,08,14,01,34,16.80
2014,08,14,01,35,16.80
2014,08,14,01,36,16.80
2014,08,14,01,37,16.80
2014,08,14,01,38,16.80
2014,08,14,01,39,16.80
2014,08,14,01,40,16.80
2014,08,14,01,41,16.80
2014,08,14,01,42,16.80
2014,08,14,01,43,16.80
2014,08,14,01,44,16.80
2014,08,14,01,45,16.80
2014,08,14,01,46,16.80
2014,08,14,01,47,16.80
2014,08,14,01,48,16.70
2014,08,14,01,49,16.70
2014,08,14,01,50,16.70
2014,08,14,01,51,16.70
2014,08,14,01,52,16.70
2014,08,14,01,53,16.70
2014,08,14,01,54,16.70
2014,08,14,01,55,16.70
2014,08,14,01,56,16.70
2014,08,14,01,57,16.70
2014,08,14,01,58,16.70
2014,08,14,01,59,16.70
2014,08,14,02,00,16.60
2014,08,14,02,01,16.60
2014,08,14,02,02,16.60
2014,08,14,02,03,16.60
2014,08,14,02,04,16.60
2014,08,14,02,05,16.60
2014,08,14,02,06,16.60
2014,08,14,02,07,16.60
2014,08,14,02,08,16.60
2014,08,14,02,09,16.60
2014,08,14,02,10,16.60
2014,08,14,02,11,16.60
2014,08,14,02,12,16.60
2014,08,14,02,13,16.60
2014,08,14,02,14,16.60
2014,08,14,02,15,16.60
2014,08,14,02,16,16.60
2014,08,14,02,17,16.60
2014,08,14,02,18,16.60
2014,08,14,02,19,16.60
2014,08,14,02,20,16.60
2014,08,14,02,21,16.60
2014,08,14,02,22,16.60
2014,08,14,02,23,16.60
2014,08,14,02,24,16.60
2014,08,14,02,25,16.60
2014,08,14,02,26,16.60
2014,08,14,02,27,16.60
2014,08,14,02,28,16.60
2014,08,14,02,29,16.50
2014,08,14,02,30,16.50
2014,08,14,02,31,16.50
2014,08,14,02,32,16.50
2014,08,14,02,33,16.50
2014,08,14,02,34,16.50
2014,08,14,02,35,16.50
2014,08,14,02,36,16.50
2014,08,14,02,37,16.50
2014,08,14,02,38,16.50
2014,08,14,02,39,16.50
2014,08,14,02,40,16.50
2014,08,14,02,41,16.50
2014,08,14,02,42,16.50
2014,08,14,02,43,16.50
2014,08,14,02,44,16.50
2014,08,14,02,45,16.50
2014,08,14,02,46,16.50
2014,08,14,02,47,16.50
2014,08,14,02,48,16.50
2014,08,14,02,49,16.50
2014,08,14,02,50,16.50
2014,08,14,02,51,16.50
2014,08,14,02,52,16.50
2014,08,14,02,53,16.50
2014,08,14,02,54,16.50
2014,08,14,02,55,16.50
2014,08,14,02,56,16.50
2014,08,14,02,57,16.50
2014,08,14,02,58,16.50
2014,08,14,02,59,16.50
2014,08,14,03,00,16.50
2014,08,14,03,01,16.50
2014,08,14,03,02,16.50
2014,08,14,03,03,16.50
2014,08,14,03,04,16.40
2014,08,14,03,05,16.40
2014,08,14,03,06,16.50
2014,08,14,03,07,16.50
2014,08,14,03,08,16.50
2014,08,14,03,09,16.50
2014,08,14,03,10,16.40
2014,08,14,03,11,16.40
2014,08,14,03,12,16.50
2014,08,14,03,13,16.40
2014,08,14,03,14,16.40
2014,08,14,03,15,16.40
2014,08,14,03,16,16.40
2014,08,14,03,17,16.40
2014,08,14,03,18,16.40
2014,08,14,03,19,16.40
2014,08,14,03,20,16.40
2014,08,14,03,21,16.40
2014,08,14,03,22,16.40
2014,08,14,03,23,16.40
2014,08,14,03,24,16.40
2014,08,14,03,25,16.40
2014,08,14,03,26,16.50
2014,08,14,03,27,16.50
2014,08,14,03,28,16.50
2014,08,14,03,29,16.50
2014,08,14,03,30,16.50
2014,08,14,03,31,16.50
2014,08,14,03,32,16.50
2014,08,14,03,33,16.50
2014,08,14,03,34,16.50
2014,08,14,03,35,16.50
2014,08,14,03,36,16.50
2014,08,14,03,37,16.50
2014,08,14,03,38,16.50
2014,08,14,03,39,16.50
2014,08,14,03,40,16.50
2014,08,14,03,41,16.50
2014,08,14,03,42,16.50
2014,08,14,03,43,16.50
2014,08,14,03,44,16.50
2014,08,14,03,45,16.50
2014,08,14,03,46,16.50
2014,08,14,03,47,16.50
2014,08,14,03,48,16.50
2014,08,14,03,49,16.50
2014,08,14,03,50,16.50
2014,08,14,03,51,16.50
2014,08,14,03,52,16.50
2014,08,14,03,53,16.50
2014,08,14,03,54,16.50
2014,08,14,03,55,16.50
2014,08,14,03,56,16.60
2014,08,14,03,57,16.60
2014,08,14,03,58,16.60
2014,08,14,03,59,16.50
2014,08,14,04,00,16.50
2014,08,14,04,01,16.50
2014,08,14,04,02,16.50
2014,08,14,04,03,16.50
2014,08,14,04,04,16.50
2014,08,14,04,05,16.50
2014,08,14,04,06,16.50
2014,08,14,04,07,16.50
2014,08,14,04,08,16.50
2014,08,14,04,09,16.60
2014,08,14,04,10,16.60
2014,08,14,04,11,16.50
2014,08,14,04,12,16.50
2014,08,14,04,13,16.60
2014,08,14,04,14,16.50
2014,08,14,04,15,16.60
2014,08,14,04,16,16.60
2014,08,14,04,17,16.60
2014,08,14,04,18,16.50
2014,08,14,04,19,16.60
2014,08,14,04,20,16.50
2014,08,14,04,21,16.50
2014,08,14,04,22,16.50
2014,08,14,04,23,16.50
2014,08,14,04,24,16.50
2014,08,14,04,25,16.50
2014,08,14,04,26,16.50
2014,08,14,04,27,16.50
2014,08,14,04,28,16.50
2014,08,14,04,29,16.50
2014,08,14,04,30,16.50
2014,08,14,04,31,16.50
2014,08,14,04,32,16.50
2014,08,14,04,33,16.60
2014,08,14,04,34,16.60
2014,08,14,04,35,16.60
2014,08,14,04,36,16.60
2014,08,14,04,37,16.60
2014,08,14,04,38,16.60
2014,08,14,04,39,16.60
2014,08,14,04,40,16.60
2014,08,14,04,41,16.60
2014,08,14,04,42,16.60
2014,08,14,04,43,16.60
2014,08,14,04,44,16.60
2014,08,14,04,45,16.60
2014,08,14,04,46,16.60
2014,08,14,04,47,16.60
2014,08,14,04,48,16.60
2014,08,14,04,49,16.60
2014,08,14,04,50,16.60
2014,08,14,04,51,16.60
2014,08,14,04,52,16.60
2014,08,14,04,53,16.60
2014,08,14,04,54,16.60
2014,08,14,04,55,16.60
2014,08,14,04,56,16.60
2014,08,14,04,57,16.60
2014,08,14,04,58,16.60
2014,08,14,04,59,16.60
2014,08,14,05,00,16.60
2014,08,14,05,01,16.60
2014,08,14,05,02,16.60
2014,08,14,05,03,16.60
2014,08,14,05,04,16.50
2014,08,14,05,05,16.50
2014,08,14,05,06,16.50
2014,08,14,05,07,16.50
2014,08,14,05,08,16.40
2014,08,14,05,09,16.40
2014,08,14,05,10,16.40
2014,08,14,05,11,16.40
2014,08,14,05,12,16.40
2014,08,14,05,13,16.40
2014,08,14,05,14,16.40
2014,08,14,05,15,16.40
2014,08,14,05,16,16.40
2014,08,14,05,17,16.40
2014,08,14,05,18,16.40
2014,08,14,05,19,16.30
2014,08,14,05,20,16.30
2014,08,14,05,21,16.30
2014,08,14,05,22,16.30
2014,08,14,05,23,16.30
2014,08,14,05,24,16.30
2014,08,14,05,25,16.30
2014,08,14,05,26,16.30
2014,08,14,05,27,16.30
2014,08,14,05,28,16.30
2014,08,14,05,29,16.20
2014,08,14,05,30,16.20
2014,08,14,05,31,16.20
2014,08,14,05,32,16.20
2014,08,14,05,33,16.20
2014,08,14,05,34,16.20
2014,08,14,05,35,16.20
2014,08,14,05,36,16.20
2014,08,14,05,37,16.20
2014,08,14,05,38,16.20
2014,08,14,05,39,16.10
2014,08,14,05,40,16.10
2014,08,14,05,41,16.10
2014,08,14,05,42,16.10
2014,08,14,05,43,16.10
2014,08,14,05,44,16.10
2014,08,14,05,45,16.10
2014,08,14,05,46,16.10
2014,08,14,05,47,16.10
2014,08,14,05,48,16.10
2014,08,14,05,49,16.10
2014,08,14,05,50,16.10
2014,08,14,05,51,16.10
2014,08,14,05,52,16.10
2014,08,14,05,53,16.10
2014,08,14,05,54,16.10
2014,08,14,05,55,16.10
2014,08,14,05,56,16.10
2014,08,14,05,57,16.10
2014,08,14,05,58,16.10
2014,08,14,05,59,16.10
2014,08,14,06,00,16.10
2014,08,14,06,01,16.10
2014,08,14,06,02,16.10
2014,08,14,06,03,16.10
2014,08,14,06,04,16.10
2014,08,14,06,05,16.10
2014,08,14,06,06,16.10
2014,08,14,06,07,16.10
2014,08,14,06,08,16.10
2014,08,14,06,09,16.10
2014,08,14,06,10,16.10
2014,08,14,06,11,16.10
2014,08,14,06,12,16.20
2014,08,14,06,13,16.20
2014,08,14,06,14,16.20
2014,08,14,06,15,16.20
2014,08,14,06,16,16.20
2014,08,14,06,17,16.20
2014,08,14,06,18,16.20
2014,08,14,06,19,16.20
2014,08,14,06,20,16.20
2014,08,14,06,21,16.20
2014,08,14,06,22,16.20
2014,08,14,06,23,16.20
2014,08,14,06,24,16.20
2014,08,14,06,25,16.20
2014,08,14,06,26,16.20
2014,08,14,06,27,16.30
2014,08,14,06,28,16.30
2014,08,14,06,29,16.30
2014,08,14,06,30,16.30
2014,08,14,06,31,16.30
2014,08,14,06,32,16.30
2014,08,14,06,33,16.30
2014,08,14,06,34,16.30
2014,08,14,06,35,16.30
2014,08,14,06,36,16.30
2014,08,14,06,37,16.30
2014,08,14,06,38,16.30
2014,08,14,06,39,16.40
2014,08,14,06,40,16.40
2014,08,14,06,41,16.40
2014,08,14,06,42,16.40
2014,08,14,06,43,16.40
2014,08,14,06,44,16.40
2014,08,14,06,45,16.40
2014,08,14,06,46,16.40
2014,08,14,06,47,16.40
2014,08,14,06,48,16.40
2014,08,14,06,49,16.40
2014,08,14,06,50,16.50
2014,08,14,06,51,16.50
2014,08,14,06,52,16.50
2014,08,14,06,53,16.50
2014,08,14,06,54,16.50
2014,08,14,06,55,16.60
2014,08,14,06,56,16.60
2014,08,14,06,57,16.60
2014,08,14,06,58,16.60
2014,08,14,06,59,16.60
2014,08,14,07,00,16.70
2014,08,14,07,01,16.70
2014,08,14,07,02,16.70
2014,08,14,07,03,16.70
2014,08,14,07,04,16.70
2014,08,14,07,05,16.70
2014,08,14,07,06,16.80
2014,08,14,07,07,16.80
2014,08,14,07,08,16.80
2014,08,14,07,09,16.80
2014,08,14,07,10,16.80
2014,08,14,07,11,16.90
2014,08,14,07,12,16.90
2014,08,14,07,13,16.90
2014,08,14,07,14,16.90
2014,08,14,07,15,16.90
2014,08,14,07,16,16.90
2014,08,14,07,17,17.00
2014,08,14,07,18,17.00
2014,08,14,07,19,17.00
2014,08,14,07,20,17.00
2014,08,14,07,21,17.00
2014,08,14,07,22,17.10
2014,08,14,07,23,17.10
2014,08,14,07,24,17.10
2014,08,14,07,25,17.10
2014,08,14,07,26,17.10
2014,08,14,07,27,17.10
2014,08,14,07,28,17.10
2014,08,14,07,29,17.10
2014,08,14,07,30,17.10
2014,08,14,07,31,17.10
2014,08,14,07,32,17.10
2014,08,14,07,33,17.10
2014,08,14,07,34,17.10
2014,08,14,07,35,17.10
2014,08,14,07,36,17.10
2014,08,14,07,37,17.10
2014,08,14,07,38,17.10
2014,08,14,07,39,17.10
2014,08,14,07,40,17.20
2014,08,14,07,41,17.20
2014,08,14,07,42,17.20
2014,08,14,07,43,17.20
2014,08,14,07,44,17.20
2014,08,14,07,45,17.20
2014,08,14,07,46,17.30
2014,08,14,07,47,17.30
2014,08,14,07,48,17.30
2014,08,14,07,49,17.40
2014,08,14,07,50,17.40
2014,08,14,07,51,17.40
2014,08,14,07,52,17.50
2014,08,14,07,53,17.50
2014,08,14,07,54,17.60
2014,08,14,07,55,17.60
2014,08,14,07,56,17.60
2014,08,14,07,57,17.60
2014,08,14,07,58,17.60
2014,08,14,07,59,17.70
2014,08,14,08,00,17.70
2014,08,14,08,01,17.70
2014,08,14,08,02,17.70
2014,08,14,08,03,17.70
2014,08,14,08,04,17.70
2014,08,14,08,05,17.70
2014,08,14,08,06,17.70
2014,08,14,08,07,17.80
2014,08,14,08,08,17.80
2014,08,14,08,09,17.80
2014,08,14,08,10,17.80
2014,08,14,08,11,17.80
2014,08,14,08,12,17.80
2014,08,14,08,13,17.80
2014,08,14,08,14,17.80
2014,08,14,08,15,17.80
2014,08,14,08,16,17.80
2014,08,14,08,17,17.80
2014,08,14,08,18,17.80
2014,08,14,08,19,17.80
2014,08,14,08,20,17.80
2014,08,14,08,21,17.80
2014,08,14,08,22,17.90
2014,08,14,08,23,17.90
2014,08,14,08,24,17.90
2014,08,14,08,25,17.80
2014,08,14,08,26,17.80
2014,08,14,08,27,17.80
2014,08,14,08,28,17.80
2014,08,14,08,29,17.80
2014,08,14,08,30,17.80
2014,08,14,08,31,17.80
2014,08,14,08,32,17.80
2014,08,14,08,33,17.80
2014,08,14,08,34,17.80
2014,08,14,08,35,17.80
2014,08,14,08,36,17.80
2014,08,14,08,37,17.80
2014,08,14,08,38,17.80
2014,08,14,08,39,17.80
2014,08,14,08,40,17.80
2014,08,14,08,41,17.80
2014,08,14,08,42,17.80
2014,08,14,08,43,17.70
2014,08,14,08,44,17.70
2014,08,14,08,45,17.70
2014,08,14,08,46,17.70
2014,08,14,08,47,17.70
2014,08,14,08,48,17.70
2014,08,14,08,49,17.70
2014,08,14,08,50,17.70
2014,08,14,08,51,17.70
2014,08,14,08,52,17.70
2014,08,14,08,53,17.70
2014,08,14,08,54,17.70
2014,08,14,08,55,17.70
2014,08,14,08,56,17.70
2014,08,14,08,57,17.70
2014,08,14,08,58,17.70
2014,08,14,08,59,17.70
2014,08,14,09,00,17.70
2014,08,14,09,01,17.70
2014,08,14,09,02,17.70
2014,08,14,09,03,17.70
2014,08,14,09,04,17.70
2014,08,14,09,05,17.70
2014,08,14,09,06,17.70
2014,08,14,09,07,17.70
2014,08,14,09,08,17.70
2014,08,14,09,09,17.70
2014,08,14,09,10,17.70
2014,08,14,09,11,17.70
2014,08,14,09,12,17.70
2014,08,14,09,13,17.70
2014,08,14,09,14,17.70
2014,08,14,09,15,17.70
2014,08,14,09,16,17.70
2014,08,14,09,17,17.70
2014,08,14,09,18,17.80
2014,08,14,09,19,17.80
2014,08,14,09,20,17.80
2014,08,14,09,21,17.70
2014,08,14,09,22,17.70
2014,08,14,09,23,17.70
2014,08,14,09,24,17.70
2014,08,14,09,25,17.70
2014,08,14,09,26,17.70
2014,08,14,09,27,17.70
2014,08,14,09,28,17.70
2014,08,14,09,29,17.70
2014,08,14,09,30,17.70
2014,08,14,09,31,17.70
2014,08,14,09,32,17.70
2014,08,14,09,33,17.70
2014,08,14,09,34,17.70
2014,08,14,09,35,17.70
2014,08,14,09,36,17.70
2014,08,14,09,37,17.80
2014,08,14,09,38,17.80
2014,08,14,09,39,17.80
2014,08,14,09,40,17.80
2014,08,14,09,41,17.70
2014,08,14,09,42,17.70
2014,08,14,09,43,17.70
2014,08,14,09,44,17.70
2014,08,14,09,45,17.80
2014,08,14,09,46,17.80
2014,08,14,09,47,17.80
2014,08,14,09,48,17.80
2014,08,14,09,49,17.80
2014,08,14,09,50,17.80
2014,08,14,09,51,17.80
2014,08,14,09,52,17.80
2014,08,14,09,53,17.80
2014,08,14,09,54,17.90
2014,08,14,09,55,17.90
2014,08,14,09,56,17.90
2014,08,14,09,57,17.90
2014,08,14,09,58,17.90
2014,08,14,09,59,17.90
2014,08,14,10,00,17.90
2014,08,14,10,01,17.90
2014,08,14,10,02,17.90
2014,08,14,10,03,17.90
2014,08,14,10,04,17.90
2014,08,14,10,05,17.90
2014,08,14,10,06,18.00
2014,08,14,10,07,18.00
2014,08,14,10,08,18.00
2014,08,14,10,09,18.00
2014,08,14,10,10,18.10
2014,08,14,10,11,18.00
2014,08,14,10,12,18.10
2014,08,14,10,13,18.10
2014,08,14,10,14,18.10
2014,08,14,10,15,18.10
2014,08,14,10,16,18.10
2014,08,14,10,17,18.10
2014,08,14,10,18,18.10
2014,08,14,10,19,18.10
2014,08,14,10,20,18.10
2014,08,14,10,21,18.10
2014,08,14,10,22,18.20
2014,08,14,10,23,18.10
2014,08,14,10,24,18.10
2014,08,14,10,25,18.10
2014,08,14,10,26,18.10
2014,08,14,10,27,18.10
2014,08,14,10,28,18.10
2014,08,14,10,29,18.10
2014,08,14,10,30,18.10
2014,08,14,10,31,18.10
2014,08,14,10,32,18.10
2014,08,14,10,33,18.10
2014,08,14,10,34,18.10
2014,08,14,10,35,18.10
2014,08,14,10,36,18.10
2014,08,14,10,37,18.10
2014,08,14,10,38,18.10
2014,08,14,10,39,18.10
2014,08,14,10,40,18.10
2014,08,14,10,41,18.10
2014,08,14,10,42,18.10
2014,08,14,10,43,18.10
2014,08,14,10,44,18.10
2014,08,14,10,45,18.10
2014,08,14,10,46,18.10
2014,08,14,10,47,18.20
2014,08,14,10,48,18.20
2014,08,14,10,49,18.20
2014,08,14,10,50,18.20
2014,08,14,10,51,18.10
2014,08,14,10,52,18.20
2014,08,14,10,53,18.20
2014,08,14,10,54,18.20
2014,08,14,10,55,18.20
2014,08,14,10,56,18.20
2014,08,14,10,57,18.20
2014,08,14,10,58,18.30
2014,08,14,10,59,18.30
2014,08,14,11,00,18.30
2014,08,14,11,01,18.30
2014,08,14,11,02,18.40
2014,08,14,11,03,18.40
2014,08,14,11,04,18.40
2014,08,14,11,05,18.50
2014,08,14,11,06,18.50
2014,08,14,11,07,18.50
2014,08,14,11,08,18.60
2014,08,14,11,09,18.60
2014,08,14,11,10,18.70
2014,08,14,11,11,18.70
2014,08,14,11,12,18.80
2014,08,14,11,13,18.80
2014,08,14,11,14,18.90
2014,08,14,11,15,18.90
2014,08,14,11,16,19.00
2014,08,14,11,17,19.00
2014,08,14,11,18,19.00
2014,08,14,11,19,19.10
2014,08,14,11,20,19.20
2014,08,14,11,21,19.30
2014,08,14,11,22,19.40
2014,08,14,11,23,19.50
2014,08,14,11,24,19.60
2014,08,14,11,25,19.70
2014,08,14,11,26,19.70
2014,08,14,11,27,19.70
2014,08,14,11,28,19.70
2014,08,14,11,29,19.80
2014,08,14,11,30,19.90
2014,08,14,11,31,20.00
2014,08,14,11,32,20.10
2014,08,14,11,33,20.20
2014,08,14,11,34,20.30
2014,08,14,11,35,20.40
2014,08,14,11,36,20.40
2014,08,14,11,37,20.40
2014,08,14,11,38,20.50
2014,08,14,11,39,20.50
2014,08,14,11,40,20.40
2014,08,14,11,41,20.40
2014,08,14,11,42,20.40
2014,08,14,11,43,20.40
2014,08,14,11,44,20.40
2014,08,14,11,45,20.40
2014,08,14,11,46,20.40
2014,08,14,11,47,20.50
2014,08,14,11,48,20.60
2014,08,14,11,49,20.60
2014,08,14,11,50,20.60
2014,08,14,11,51,20.70
2014,08,14,11,52,20.70
2014,08,14,11,53,20.70
2014,08,14,11,54,20.80
2014,08,14,11,55,20.80
2014,08,14,11,56,20.80
2014,08,14,11,57,20.90
2014,08,14,11,58,20.90
2014,08,14,11,59,20.90
2014,08,14,12,00,20.90
2014,08,14,12,01,20.90
2014,08,14,12,02,20.90
2014,08,14,12,03,20.90
2014,08,14,12,04,21.00
2014,08,14,12,05,21.00
2014,08,14,12,06,21.10
2014,08,14,12,07,21.20
2014,08,14,12,08,21.20
2014,08,14,12,09,21.20
2014,08,14,12,10,21.20
2014,08,14,12,11,21.20
2014,08,14,12,12,21.20
2014,08,14,12,13,21.30
2014,08,14,12,14,21.30
2014,08,14,12,15,21.40
2014,08,14,12,16,21.40
2014,08,14,12,17,21.50
2014,08,14,12,18,21.50
2014,08,14,12,19,21.60
2014,08,14,12,20,21.70
2014,08,14,12,21,21.80
2014,08,14,12,22,21.90
2014,08,14,12,23,21.90
2014,08,14,12,24,22.00
2014,08,14,12,25,22.00
2014,08,14,12,26,22.10
2014,08,14,12,27,22.10
2014,08,14,12,28,22.10
2014,08,14,12,29,22.10
2014,08,14,12,30,22.20
2014,08,14,12,31,22.10
2014,08,14,12,32,22.10
2014,08,14,12,33,22.10
2014,08,14,12,34,22.10
2014,08,14,12,35,22.00
2014,08,14,12,36,22.00
2014,08,14,12,37,22.00
2014,08,14,12,38,22.10
2014,08,14,12,39,22.10
2014,08,14,12,40,22.10
2014,08,14,12,41,22.20
2014,08,14,12,42,22.20
2014,08,14,12,43,22.20
2014,08,14,12,44,22.30
2014,08,14,12,45,22.30
2014,08,14,12,46,22.30
2014,08,14,12,47,22.30
2014,08,14,12,48,22.20
2014,08,14,12,49,22.20
2014,08,14,12,50,22.20
2014,08,14,12,51,22.10
2014,08,14,12,52,22.10
2014,08,14,12,53,22.10
2014,08,14,12,54,22.10
2014,08,14,12,55,22.20
2014,08,14,12,56,22.20
2014,08,14,12,57,22.20
2014,08,14,12,58,22.20
2014,08,14,12,59,22.20
2014,08,14,13,00,22.20
2014,08,14,13,01,22.20
2014,08,14,13,02,22.20
2014,08,14,13,03,22.20
2014,08,14,13,04,22.30
2014,08,14,13,05,22.30
2014,08,14,13,06,22.30
2014,08,14,13,07,22.40
2014,08,14,13,08,22.40
2014,08,14,13,09,22.40
2014,08,14,13,10,22.30
2014,08,14,13,11,22.30
2014,08,14,13,12,22.40
2014,08,14,13,13,22.40
2014,08,14,13,14,22.60
2014,08,14,13,15,22.60
2014,08,14,13,16,22.70
2014,08,14,13,17,22.80
2014,08,14,13,18,22.80
2014,08,14,13,19,22.90
2014,08,14,13,20,22.90
2014,08,14,13,21,23.00
2014,08,14,13,22,22.90
2014,08,14,13,23,22.90
2014,08,14,13,24,22.90
2014,08,14,13,25,22.80
2014,08,14,13,26,22.80
2014,08,14,13,27,22.80
2014,08,14,13,28,22.80
2014,08,14,13,29,22.90
2014,08,14,13,30,23.00
2014,08,14,13,31,23.00
2014,08,14,13,32,23.20
2014,08,14,13,33,23.30
2014,08,14,13,34,23.40
2014,08,14,13,35,23.50
2014,08,14,13,36,23.50
2014,08,14,13,37,23.50
2014,08,14,13,38,23.60
2014,08,14,13,39,23.60
2014,08,14,13,40,23.50
2014,08,14,13,41,23.40
2014,08,14,13,42,23.40
2014,08,14,13,43,23.40
2014,08,14,13,44,23.50
2014,08,14,13,45,23.50
2014,08,14,13,46,23.50
2014,08,14,13,47,23.60
2014,08,14,13,48,23.70
2014,08,14,13,49,23.70
2014,08,14,13,50,23.80
2014,08,14,13,51,23.80
2014,08,14,13,52,23.90
2014,08,14,13,53,23.80
2014,08,14,13,54,23.70
2014,08,14,13,55,23.60
2014,08,14,13,56,23.40
2014,08,14,13,57,23.30
2014,08,14,13,58,23.30
2014,08,14,13,59,23.40
2014,08,14,14,00,23.40
2014,08,14,14,01,23.50
2014,08,14,14,02,23.60
2014,08,14,14,03,23.70
2014,08,14,14,04,23.80
2014,08,14,14,05,23.80
2014,08,14,14,06,23.80
2014,08,14,14,07,23.90
2014,08,14,14,08,24.00
2014,08,14,14,09,24.00
2014,08,14,14,10,24.10
2014,08,14,14,11,24.20
2014,08,14,14,12,24.20
2014,08,14,14,13,24.30
2014,08,14,14,14,24.40
2014,08,14,14,15,24.40
2014,08,14,14,16,24.50
2014,08,14,14,17,24.60
2014,08,14,14,18,24.70
2014,08,14,14,19,24.90
2014,08,14,14,20,25.00
2014,08,14,14,21,25.10
2014,08,14,14,22,25.20
2014,08,14,14,23,25.20
2014,08,14,14,24,25.20
2014,08,14,14,25,25.20
2014,08,14,14,26,25.20
2014,08,14,14,27,25.10
2014,08,14,14,28,25.10
2014,08,14,14,29,25.10
2014,08,14,14,30,25.10
2014,08,14,14,31,25.20
2014,08,14,14,32,25.20
2014,08,14,14,33,25.30
2014,08,14,14,34,25.40
2014,08,14,14,35,25.40
2014,08,14,14,36,25.50
2014,08,14,14,37,25.60
2014,08,14,14,38,25.60
2014,08,14,14,39,25.60
2014,08,14,14,40,25.60
2014,08,14,14,41,25.50
2014,08,14,14,42,25.40
2014,08,14,14,43,25.40
2014,08,14,14,44,25.40
2014,08,14,14,45,25.40
2014,08,14,14,46,25.50
2014,08,14,14,47,25.60
2014,08,14,14,48,25.60
2014,08,14,14,49,25.70
2014,08,14,14,50,25.70
2014,08,14,14,51,25.80
2014,08,14,14,52,25.70
2014,08,14,14,53,25.70
2014,08,14,14,54,25.80
2014,08,14,14,55,25.80
2014,08,14,14,56,25.90
2014,08,14,14,57,25.90
2014,08,14,14,58,26.00
2014,08,14,14,59,26.10
2014,08,14,15,00,26.10
2014,08,14,15,01,26.10
2014,08,14,15,02,26.10
2014,08,14,15,03,26.00
2014,08,14,15,04,26.00
2014,08,14,15,05,26.00
2014,08,14,15,06,25.90
2014,08,14,15,07,25.80
2014,08,14,15,08,25.70
2014,08,14,15,09,25.60
2014,08,14,15,10,25.50
2014,08,14,15,11,25.40
2014,08,14,15,12,25.30
2014,08,14,15,13,25.30
2014,08,14,15,14,25.30
2014,08,14,15,15,25.30
2014,08,14,15,16,25.30
2014,08,14,15,17,25.30
2014,08,14,15,18,25.40
2014,08,14,15,19,25.50
2014,08,14,15,20,25.50
2014,08,14,15,21,25.60
2014,08,14,15,22,25.60
2014,08,14,15,23,25.60
2014,08,14,15,24,25.60
2014,08,14,15,25,25.60
2014,08,14,15,26,25.60
2014,08,14,15,27,25.50
2014,08,14,15,28,25.40
2014,08,14,15,29,25.30
2014,08,14,15,30,25.30
2014,08,14,15,31,25.30
2014,08,14,15,32,25.30
2014,08,14,15,33,25.30
2014,08,14,15,34,25.30
2014,08,14,15,35,25.30
2014,08,14,15,36,25.20
2014,08,14,15,37,25.20
2014,08,14,15,38,25.20
2014,08,14,15,39,25.20
2014,08,14,15,40,25.20
2014,08,14,15,41,25.30
2014,08,14,15,42,25.30
2014,08,14,15,43,25.30
2014,08,14,15,44,25.30
2014,08,14,15,45,25.30
2014,08,14,15,46,25.30
2014,08,14,15,47,25.30
2014,08,14,15,48,25.30
2014,08,14,15,49,25.30
2014,08,14,15,50,25.30
2014,08,14,15,51,25.30
2014,08,14,15,52,25.20
2014,08,14,15,53,25.20
2014,08,14,15,54,25.10
2014,08,14,15,55,25.10
2014,08,14,15,56,25.10
2014,08,14,15,57,25.10
2014,08,14,15,58,25.00
2014,08,14,15,59,25.00
2014,08,14,16,00,24.90
2014,08,14,16,01,25.00
2014,08,14,16,02,24.90
2014,08,14,16,03,24.90
2014,08,14,16,04,24.90
2014,08,14,16,05,24.80
2014,08,14,16,06,24.80
2014,08,14,16,07,24.80
2014,08,14,16,08,24.90
2014,08,14,16,09,25.00
2014,08,14,16,10,25.10
2014,08,14,16,11,25.20
2014,08,14,16,12,25.20
2014,08,14,16,13,25.30
2014,08,14,16,14,25.30
2014,08,14,16,15,25.40
2014,08,14,16,16,25.40
2014,08,14,16,17,25.40
2014,08,14,16,18,25.40
2014,08,14,16,19,25.40
2014,08,14,16,20,25.40
2014,08,14,16,21,25.40
2014,08,14,16,22,25.50
2014,08,14,16,23,25.50
2014,08,14,16,24,25.50
2014,08,14,16,25,25.40
2014,08,14,16,26,25.40
2014,08,14,16,27,25.40
2014,08,14,16,28,25.40
2014,08,14,16,29,25.40
2014,08,14,16,30,25.30
2014,08,14,16,31,25.30
2014,08,14,16,32,25.30
2014,08,14,16,33,25.20
2014,08,14,16,34,25.10
2014,08,14,16,35,25.10
2014,08,14,16,36,25.00
2014,08,14,16,37,25.00
2014,08,14,16,38,24.90
2014,08,14,16,39,24.90
2014,08,14,16,40,24.90
2014,08,14,16,41,24.80
2014,08,14,16,42,24.80
2014,08,14,16,43,24.70
2014,08,14,16,44,24.70
2014,08,14,16,45,24.60
2014,08,14,16,46,24.60
2014,08,14,16,47,24.50
2014,08,14,16,48,24.50
2014,08,14,16,49,24.40
2014,08,14,16,50,24.30
2014,08,14,16,51,24.30
2014,08,14,16,52,24.30
2014,08,14,16,53,24.30
2014,08,14,16,54,24.30
2014,08,14,16,55,24.30
2014,08,14,16,56,24.30
2014,08,14,16,57,24.30
2014,08,14,16,58,24.30
2014,08,14,16,59,24.20
2014,08,14,17,00,24.20
2014,08,14,17,01,24.30
2014,08,14,17,02,24.30
2014,08,14,17,03,24.30
2014,08,14,17,04,24.30
2014,08,14,17,05,24.30
2014,08,14,17,06,24.30
2014,08,14,17,07,24.30
2014,08,14,17,08,24.30
2014,08,14,17,09,24.30
2014,08,14,17,10,24.20
2014,08,14,17,11,24.20
2014,08,14,17,12,24.10
2014,08,14,17,13,24.00
2014,08,14,17,14,23.90
2014,08,14,17,15,23.90
2014,08,14,17,16,23.80
2014,08,14,17,17,23.80
2014,08,14,17,18,23.70
2014,08,14,17,19,23.70